DW4362 Weather Reports


time (UTC)temp
F
wind
direction
speed
knots
gust
knots
rain 1hr
in
rain 24hr
in
rain mn
in
humidity
%
barometer
mb
20260905050205 76 118 0.0 0.0 0.00 0.00 0.00 95 1012.5
20260905040205 77 118 0.0 0.0 0.00 0.31 0.00 95 1012.7
20260905033204 77 118 0.0 0.0 0.00 0.55 0.00 95 1013.0
20260905030204 78 118 0.0 0.0 0.00 0.55 0.00 95 1013.2
20260905020204 78 117 0.0 0.0 0.00 0.55 0.00 95 1013.2
20260905010204 79 117 0.0 0.0 0.00 0.55 0.00 95 1012.7
20260905003204 79 117 0.0 0.0 0.00 0.55 0.00 95 1012.5
20260905000204 80 117 0.0 0.0 0.00 0.55 0.00 94 1012.2
20260904233204 81 117 0.0 0.0 0.00 0.55 0.00 93 1012.4
20260904230204 81 212 0.0 2.6 0.00 0.55 0.00 92 1012.5
20260904223203 81 169 0.0 0.0 0.00 0.55 0.00 90 1012.5
20260904213203 81 281 0.0 0.0 0.00 0.55 0.00 87 1012.4
20260904210203 80 281 0.0 0.0 0.00 0.55 0.00 89 1012.1
20260904203203 80 22 0.0 0.0 0.00 0.55 0.00 90 1012.2
20260904200203 84 127 0.0 1.7 0.00 0.55 0.00 84 1012.5
20260904183202 84 231 1.7 4.3 0.00 0.55 0.00 86 1012.6
20260904180202 86 137 2.6 7.0 0.00 0.55 0.00 80 1013.0
20260904173202 90 123 2.6 4.3 0.00 0.55 0.00 73 1013.4
20260904170202 90 28 0.0 2.6 0.00 0.55 0.00 74 1013.7
20260904163202 88 329 0.0 0.0 0.00 0.55 0.00 77 1014.4
20260904153202 85 46 0.0 0.0 0.00 0.55 0.00 87 1014.3
20260904150202 85 1 0.0 0.0 0.00 0.55 0.00 85 1014.3
20260904143202 85 86 0.0 1.7 0.00 0.55 0.00 85 1014.3
20260904140202 81 306 0.0 1.7 0.00 0.55 0.00 95 1014.1
20260904133202 78 301 0.0 0.0 0.00 0.55 0.00 95 1013.9
20260904130201 77 289 0.0 0.0 0.00 0.55 0.00 95 1013.8
20260904123202 76 289 0.0 0.0 0.00 0.55 0.00 95 1013.6
20260904120202 75 288 0.0 0.0 0.00 0.55 0.00 95 1013.5
20260904113201 74 288 0.0 0.0 0.00 0.55 0.00 95 1013.2
20260904110201 74 288 0.0 0.0 0.00 0.55 0.00 95 1013.0
20260904103201 74 288 0.0 0.0 0.00 0.55 0.00 94 1012.9
20260904100201 74 288 0.0 0.0 0.00 0.55 0.00 94 1012.6
20260904093201 74 288 0.0 0.0 0.00 0.55 0.00 94 1012.5
20260904090201 74 289 0.0 0.0 0.00 0.55 0.00 94 1012.6
20260904083201 74 289 0.0 0.0 0.00 0.56 0.00 94 1012.5
20260904080201 74 289 0.0 0.0 0.00 0.56 0.00 94 1012.5
20260904073200 74 271 0.0 0.0 0.00 0.56 0.00 94 1012.5
20260904070200 74 271 0.0 0.0 0.00 0.56 0.00 94 1012.6
20260904060200 74 96 0.0 0.0 0.00 0.56 0.00 95 1013.1
20260904053200 75 96 0.0 0.0 0.01 0.56 0.00 95 1013.4